Oxford, NC

5:49 PM EST on December 07, 2019 (GMT -0500)
Henderson-Oxford

Weather History for KHNZ - November, 2019

Change the Weather History Date:

Wednesday, November 13, 2019

  Actual Average (WUND) Record (WUND)
Temperature  
Mean Temperature 28 °F -  
Max Temperature 35 °F - - (-1)
Min Temperature 21 °F - - (-1)
Degree Days  
Heating Degree Days 38    
Moisture  
Dew Point 13 °F    
Average Humidity 58    
Maximum Humidity 87    
Minimum Humidity 36    
Precipitation  
Precipitation 0.00 in - - ()
Sea Level Pressure  
Sea Level Pressure 30.39 in    
Wind  
Wind Speed 2 mph (NNE)    
Max Wind Speed 12 mph    
Max Gust Speed -    
Visibility 10 miles    
Events      
Averages and records for this station are not official NWS values.
T = Trace of Precipitation, MM = Missing Value Source: NWS Daily Summary

Daily Weather History Graph

Daily Weather History Graph

Search for Another Location

Airport or City:

Astronomy

Nov. 13, 2019 Rise Set
Actual Time 6:49 AM EST 5:07 PM EST
Civil Twilight 6:21 AM EST 5:34 PM EST
Nautical Twilight 5:50 AM EST 6:05 PM EST
Astronomical Twilight 5:20 AM EST 6:35 PM EST
Moon 6:10 PM EST (11/13) 7:40 AM EST (11/13)
Length of Visible Light 11h 12m
Length of Day
10h 18m
Full, 99% of the Moon is Illuminated
Nov 13
Full
Nov 19
Last Quarter
Nov 26
New
Dec 4
First Quarter
Dec 12
Full

Hourly Weather History & Observations

Time (EST) Temp. Windchill Dew Point Humidity Pressure Visibility Wind Dir Wind Speed Gust Speed Precip Events Conditions
12:15 AM 24.3 °F 19.9 °F 15.1 °F 68% 30.28 in 10.0 mi North 3.5 mph - N/A   Clear
12:35 AM 23.9 °F - 15.1 °F 69% 30.28 in 10.0 mi Calm Calm - N/A   Clear
12:55 AM 23.7 °F - 14.5 °F 68% 30.28 in 10.0 mi Calm Calm - N/A   Clear
1:15 AM 23.7 °F 15.6 °F 14.0 °F 66% 30.29 in 10.0 mi North 6.9 mph - N/A   Clear
1:55 AM 23.7 °F 17.8 °F 12.6 °F 62% 30.29 in 10.0 mi North 4.6 mph - N/A   Clear
2:15 AM 23.5 °F 16.4 °F 12.0 °F 61% 30.29 in 10.0 mi NNW 5.8 mph - N/A   Clear
2:35 AM 23.4 °F - 11.7 °F 61% 30.29 in 10.0 mi Calm Calm - N/A   Clear
3:15 AM 23.0 °F 17.0 °F 10.8 °F 60% 30.30 in 10.0 mi North 4.6 mph - N/A   Clear
3:35 AM 23.0 °F - 10.4 °F 59% 30.31 in 10.0 mi Calm Calm - N/A   Clear
3:55 AM 22.5 °F - 10.9 °F 61% 30.32 in 10.0 mi Calm Calm - N/A   Clear
4:15 AM 22.1 °F - 11.1 °F 63% 30.32 in 10.0 mi Calm Calm - N/A   Clear
4:55 AM 21.9 °F - 11.1 °F 63% 30.35 in 10.0 mi Calm Calm - N/A   Clear
5:15 AM 21.6 °F - 11.1 °F 64% 30.35 in 10.0 mi Calm Calm - N/A   Clear
5:35 AM 21.2 °F - 11.3 °F 66% 30.36 in 10.0 mi Calm Calm - N/A   Clear
5:55 AM 21.0 °F - 11.3 °F 66% 30.37 in 10.0 mi Calm Calm - N/A   Clear
6:15 AM 21.7 °F - 10.4 °F 62% 30.37 in 10.0 mi Calm Calm - N/A   Clear
6:35 AM 21.4 °F - 10.9 °F 64% 30.38 in 10.0 mi Calm Calm - N/A   Clear
6:55 AM 21.2 °F - 10.8 °F 64% 30.39 in 10.0 mi Calm Calm - N/A   Clear
7:15 AM 21.6 °F - 11.3 °F 65% 30.40 in 10.0 mi Calm Calm - N/A   Clear
7:35 AM 22.1 °F - 11.8 °F 65% 30.41 in 10.0 mi Calm Calm - N/A   Clear
7:55 AM 23.7 °F - 11.7 °F 60% 30.42 in 10.0 mi Calm Calm - N/A   Clear
8:15 AM 24.6 °F 15.8 °F 12.0 °F 59% 30.42 in 10.0 mi North 8.1 mph - N/A   Clear
8:35 AM 25.5 °F - 12.4 °F 58% 30.42 in 10.0 mi Calm Calm - N/A   Clear
8:55 AM 26.2 °F 18.6 °F 10.6 °F 52% 30.43 in 10.0 mi NNE 6.9 mph - N/A   Clear
9:15 AM 27.1 °F 16.9 °F 11.7 °F 52% 30.44 in 10.0 mi NE 11.5 mph - N/A   Clear
9:35 AM 27.9 °F 19.8 °F 12.4 °F 52% 30.45 in 10.0 mi North 8.1 mph - N/A   Clear
9:55 AM 28.4 °F 18.5 °F 12.2 °F 51% 30.45 in 10.0 mi ENE 11.5 mph - N/A   Clear
10:15 AM 28.8 °F 20.9 °F 10.9 °F 47% 30.45 in 10.0 mi North 8.1 mph - N/A   Clear
10:35 AM 29.7 °F 22.8 °F 11.3 °F 46% 30.45 in 10.0 mi NNE 6.9 mph - N/A   Clear
10:55 AM 30.2 °F - 11.3 °F 45% 30.45 in 10.0 mi Calm Calm - N/A   Clear
11:35 AM 31.1 °F 23.7 °F 10.4 °F 42% 30.44 in 10.0 mi NNE 8.1 mph - N/A   Clear
11:55 AM 31.1 °F - 10.4 °F 42% 30.43 in 10.0 mi Calm Calm - N/A   Clear
12:15 PM 31.8 °F - 9.5 °F 39% 30.42 in 10.0 mi Calm Calm - N/A   Clear
12:35 PM 32.4 °F 26.9 °F 11.1 °F 41% 30.41 in 10.0 mi NNE 5.8 mph - N/A   Clear
12:55 PM 33.3 °F 27.1 °F 11.3 °F 40% 30.40 in 10.0 mi East 6.9 mph - N/A   Clear
1:15 PM 33.3 °F 26.4 °F 10.9 °F 40% 30.40 in 10.0 mi East 8.1 mph - N/A   Clear
1:55 PM 33.3 °F - 10.0 °F 38% 30.39 in 10.0 mi Calm Calm - N/A   Clear
2:15 PM 34.3 °F - 10.2 °F 37% 30.39 in 10.0 mi Calm Calm - N/A   Clear
2:35 PM 34.2 °F - 9.9 °F 36% 30.38 in 10.0 mi Calm Calm - N/A   Clear
2:55 PM 34.5 °F - 10.0 °F 36% 30.38 in 10.0 mi Calm Calm - N/A   Clear
3:15 PM 34.7 °F - 10.8 °F 37% 30.38 in 10.0 mi Calm Calm - N/A   Clear
3:35 PM 34.7 °F - 10.2 °F 36% 30.38 in 10.0 mi Calm Calm - N/A   Clear
3:55 PM 34.5 °F - 10.0 °F 36% 30.37 in 10.0 mi Calm Calm - N/A   Clear
4:15 PM 34.0 °F - 10.4 °F 38% 30.37 in 10.0 mi Calm Calm - N/A   Clear
4:35 PM 33.4 °F - 11.7 °F 41% 30.37 in 10.0 mi Calm Calm - N/A   Clear
5:15 PM 31.1 °F - 13.6 °F 48% 30.37 in 10.0 mi Calm Calm - N/A   Clear
5:35 PM 29.1 °F - 13.1 °F 51% 30.37 in 10.0 mi Calm Calm - N/A   Clear
5:55 PM 27.5 °F - 15.3 °F 60% 30.37 in 10.0 mi Calm Calm - N/A   Clear
6:35 PM 26.1 °F - 17.2 °F 69% 30.37 in 10.0 mi Calm Calm - N/A   Clear
6:55 PM 26.4 °F - 16.5 °F 66% 30.39 in 10.0 mi Calm Calm - N/A   Clear
7:15 PM 25.5 °F - 16.2 °F 68% 30.40 in 10.0 mi Calm Calm - N/A   Clear
7:35 PM 25.7 °F - 17.8 °F 72% 30.42 in 10.0 mi Calm Calm - N/A   Clear
7:55 PM 24.8 °F - 17.6 °F 74% 30.42 in 10.0 mi Calm Calm - N/A   Clear
8:35 PM 24.4 °F - 18.9 °F 79% 30.43 in 10.0 mi Calm Calm - N/A   Clear
8:55 PM 24.8 °F - 18.1 °F 76% 30.44 in 10.0 mi Calm Calm - N/A   Clear
9:15 PM 24.1 °F - 18.7 °F 80% 30.44 in 10.0 mi Calm Calm - N/A   Clear
9:35 PM 23.5 °F - 18.3 °F 80% 30.44 in 10.0 mi Calm Calm - N/A   Clear
9:55 PM 23.7 °F - 19.9 °F 85% 30.44 in 10.0 mi Calm Calm - N/A   Clear
10:15 PM 23.7 °F - 20.5 °F 87% 30.43 in 10.0 mi Calm Calm - N/A   Clear
10:35 PM 24.1 °F - 17.1 °F 75% 30.43 in 10.0 mi Calm Calm - N/A   Clear
10:55 PM 26.2 °F - 13.5 °F 59% 30.42 in 10.0 mi Calm Calm - N/A   Clear
11:15 PM 24.3 °F - 14.5 °F 67% 30.42 in 10.0 mi Calm Calm - N/A   Clear
11:55 PM 25.7 °F - 13.1 °F 59% 30.40 in 10.0 mi Calm Calm - N/A   Clear